Weather in Liverpool

United Kingdom     53°24′06″N   2°56′08″W
temp.,
°C
wind,
m/s
gust,
m/s
humid.,
%
clouds,
%
prec.,
mm/h
press.,
hPa
HPBL,
m
17 june, thu
thu1701:00+13nw3487100 0.3 1010186
04:00+13nw4690100 0.5 1010318
07:00+13wnw458448 0.5 1011395
10:00+15wnw447898 0.0 1012679
13:00+15wnw5575100 0.0 1013665
16:00+15wnw66716 0.0 1014737
19:00+15nw56685 0.0 1015587
22:00+13nw487847 0.0 1017365
18 june, fri
fri1801:00+12nw6977100 0.0 1017435
04:00+12nnw697676 0.0 1017460
07:00+13nnw6875100 0.0 1018517
10:00+15nw4464100 0.0 1018734
13:00+15nw656421 0.0 1018939
16:00+15nw556711 0.0 1017675
19:00+14nw456829 0.0 1017494
22:00+13nw347571 0.0 1017244
19 june, sat
sat1901:00+12wnw127533 0.0 1017159
04:00+11sw117934 0.0 101772
07:00+13se247653 0.0 1017321
10:00+15sse677197 0.1 1016717
13:00+19sse565395 0.2 10141289
16:00+19se4655100 0.0 1013707
19:00+17se5970100 0.2 1012570
22:00+15ese51079100 0.0 1012482
20 june, sun
sun2001:00+14e5107897 0.0 1011559
04:00+12e51088100 0.4 1009566
07:00+11ene81594100 6.8 1008614
10:00+11ene71389100 1.4 1008924
13:00+11ne71391100 5.9 1007972
16:00+11ne61191100 1.4 1007888
19:00+10nne6992100 2.9 1008543
22:00+10ne51192100 1.2 1009637
21 june, mon
mon2101:00+10nne5993100 1.8 1009535
04:00+9nne4892100 0.2 1010448
07:00+10nne4891100 0.3 1011489
10:00+11nne4887100 0.1 1012591
13:00+12nne4880100 0.1 1013737
16:00+13ne3576100 0.1 1014739
19:00+13ne3680100 0.4 1015634
22:00+12nne3782100 0.1 1016460